DLH407 UHMA-PANC

Flight info

Callsign DLH407
Flight time N/A
Altitude 37000
Route NALEK DCT BUMUL N222 VALDA/N0451F370 H222 MCG
Aircraft B38M/M-SDE1FGHILORVWXY/HB1

Departure

Time 2026-05-07 15:02
Airport Ugolny Yuri Ryktheu Airport (UHMA)

Arrival

Time N/A
Airport Ted Stevens Anchorage International Airport (PANC)
Time Latitude Longitude Altitude Speed Heading
2026-05-07 14:48 64.71394 177.73757 206 ft 0 kts 197°
2026-05-07 14:55 64.71400 177.73761 206 ft 2 kts 197°
2026-05-07 14:55 64.71416 177.73777 206 ft 3 kts 214°
2026-05-07 14:55 64.71429 177.73811 206 ft 3 kts 241°
2026-05-07 14:55 64.71435 177.73856 206 ft 3 kts 266°
2026-05-07 14:56 64.71432 177.73902 206 ft 1 kts 287°
2026-05-07 14:56 64.71432 177.73901 206 ft 1 kts 287°
2026-05-07 14:57 64.71435 177.73890 206 ft 1 kts 323°
2026-05-07 14:57 64.71461 177.73859 206 ft 8 kts 334°
2026-05-07 14:57 64.71543 177.73768 206 ft 18 kts 334°
2026-05-07 14:57 64.71681 177.73612 206 ft 27 kts 333°
2026-05-07 14:58 64.71872 177.73386 206 ft 35 kts 333°
2026-05-07 14:58 64.72047 177.73047 206 ft 36 kts 319°
2026-05-07 14:58 64.72240 177.72869 206 ft 31 kts 15°
2026-05-07 14:58 64.72479 177.73013 206 ft 40 kts 14°
2026-05-07 14:59 64.72773 177.73190 206 ft 47 kts 15°
2026-05-07 14:59 64.73118 177.73398 206 ft 55 kts 15°
2026-05-07 14:59 64.73509 177.73631 206 ft 61 kts 15°
2026-05-07 14:59 64.73942 177.73889 206 ft 67 kts 13°
2026-05-07 15:00 64.74393 177.74165 206 ft 56 kts 14°
2026-05-07 15:00 64.74743 177.74367 206 ft 43 kts 14°
2026-05-07 15:00 64.74925 177.74519 206 ft 15 kts 66°
2026-05-07 15:00 64.74963 177.74825 206 ft 24 kts 73°
2026-05-07 15:01 64.74956 177.75048 206 ft 13 kts 159°
2026-05-07 15:01 64.74920 177.75046 206 ft 0 kts 195°
2026-05-07 15:01 64.74880 177.75020 206 ft 26 kts 194°
2026-05-07 15:02 64.74422 177.74739 206 ft 109 kts 194°
2026-05-07 15:02 64.73445 177.74146 317 ft 170 kts 195°
2026-05-07 15:02 64.72227 177.73534 1201 ft 181 kts 190°
2026-05-07 15:02 64.70925 177.73470 2221 ft 195 kts 179°
2026-05-07 15:03 64.69576 177.74527 2871 ft 220 kts 150°
2026-05-07 15:03 64.68693 177.77513 3727 ft 233 kts 111°
2026-05-07 15:03 64.68595 177.81386 4736 ft 243 kts 91°
2026-05-07 15:03 64.68687 177.85408 5745 ft 251 kts 90°
2026-05-07 15:04 64.68763 177.89457 6765 ft 255 kts 90°
2026-05-07 15:04 64.68827 177.93633 7773 ft 259 kts 91°
2026-05-07 15:04 64.68883 177.97869 8739 ft 263 kts 91°
2026-05-07 15:04 64.68933 178.02189 9660 ft 268 kts 91°
2026-05-07 15:05 64.68977 178.06589 10472 ft 277 kts 91°
2026-05-07 15:05 64.69022 178.11232 11017 ft 294 kts 91°
2026-05-07 15:05 64.69066 178.16145 11545 ft 310 kts 91°
2026-05-07 15:05 64.69110 178.21253 12263 ft 317 kts 91°
2026-05-07 15:06 64.69151 178.26433 13073 ft 321 kts 91°
2026-05-07 15:06 64.69192 178.31691 13856 ft 325 kts 91°
2026-05-07 15:06 64.69230 178.36996 14584 ft 329 kts 91°
2026-05-07 15:06 64.69268 178.42404 14952 ft 334 kts 91°
2026-05-07 15:07 64.69304 178.47820 14991 ft 333 kts 91°
2026-05-07 15:07 64.69338 178.53239 14999 ft 333 kts 91°
2026-05-07 15:07 64.69370 178.58630 15000 ft 333 kts 91°
2026-05-07 15:07 64.69400 178.63975 15000 ft 332 kts 91°
2026-05-07 15:08 64.69428 178.69379 15000 ft 332 kts 91°
2026-05-07 15:08 64.69454 178.74758 15000 ft 331 kts 91°
2026-05-07 15:08 64.69477 178.80149 15000 ft 331 kts 91°
2026-05-07 15:08 64.69499 178.85516 15000 ft 331 kts 91°
2026-05-07 15:09 64.69519 178.90895 15000 ft 331 kts 91°
2026-05-07 15:09 64.69536 178.96277 15000 ft 331 kts 91°
2026-05-07 15:09 64.69552 179.01686 15000 ft 332 kts 92°
2026-05-07 15:09 64.69567 179.07092 15000 ft 332 kts 92°
2026-05-07 15:10 64.69580 179.12509 15000 ft 333 kts 92°
2026-05-07 15:10 64.69590 179.17908 15000 ft 333 kts 92°
2026-05-07 15:10 64.69598 179.23327 15000 ft 333 kts 92°
2026-05-07 15:10 64.69605 179.28747 15000 ft 333 kts 92°
2026-05-07 15:11 64.69609 179.34101 15000 ft 333 kts 92°
2026-05-07 15:11 64.69604 179.39578 14997 ft 333 kts 94°
2026-05-07 15:11 64.69455 179.44923 15274 ft 336 kts 96°
2026-05-07 15:11 64.69295 179.50389 16012 ft 337 kts 96°
2026-05-07 15:12 64.69140 179.55871 16711 ft 340 kts 96°
2026-05-07 15:12 64.68982 179.61423 17371 ft 343 kts 96°
2026-05-07 15:12 64.68823 179.67017 17990 ft 347 kts 96°
2026-05-07 15:12 64.68660 179.72677 18597 ft 350 kts 96°
2026-05-07 15:13 64.68495 179.78378 19202 ft 353 kts 96°
2026-05-07 15:13 64.68325 179.84133 19770 ft 356 kts 96°
2026-05-07 15:13 64.68143 179.89946 20316 ft 360 kts 96°
2026-05-07 15:13 64.67938 179.95788 20851 ft 363 kts 96°
2026-05-07 15:14 64.67732 -179.98312 21375 ft 366 kts 96°
2026-05-07 15:14 64.67521 -179.92353 21888 ft 369 kts 97°
2026-05-07 15:14 64.67307 -179.86349 22371 ft 373 kts 97°
2026-05-07 15:14 64.67091 -179.80365 22838 ft 376 kts 97°
2026-05-07 15:15 64.66869 -179.74245 23309 ft 379 kts 97°
2026-05-07 15:15 64.66641 -179.68087 23777 ft 382 kts 97°
2026-05-07 15:15 64.66410 -179.61876 24237 ft 385 kts 97°
2026-05-07 15:15 64.66173 -179.55607 24693 ft 388 kts 97°
2026-05-07 15:16 64.65934 -179.49305 25141 ft 391 kts 97°
2026-05-07 15:16 64.65689 -179.42972 25594 ft 393 kts 97°
2026-05-07 15:16 64.65441 -179.36601 26028 ft 395 kts 97°
2026-05-07 15:16 64.65188 -179.30200 26445 ft 397 kts 97°
2026-05-07 15:17 64.64931 -179.23762 26823 ft 400 kts 97°
2026-05-07 15:17 64.64669 -179.17277 27180 ft 402 kts 97°
2026-05-07 15:17 64.64404 -179.10776 27533 ft 404 kts 97°
2026-05-07 15:17 64.64134 -179.04236 27876 ft 406 kts 97°
2026-05-07 15:18 64.63954 -178.99890 28113 ft 407 kts 97°
2026-05-07 15:18 64.63585 -178.91153 28554 ft 409 kts 97°
2026-05-07 15:18 64.63303 -178.84529 28860 ft 412 kts 97°
2026-05-07 15:18 64.63016 -178.77856 29160 ft 414 kts 97°
2026-05-07 15:19 64.62725 -178.71161 29457 ft 416 kts 97°
2026-05-07 15:19 64.62529 -178.66695 29652 ft 417 kts 97°
2026-05-07 15:19 64.62230 -178.59945 29941 ft 419 kts 97°
2026-05-07 15:19 64.61926 -178.53168 30215 ft 421 kts 98°
2026-05-07 15:20 64.61513 -178.44047 30557 ft 425 kts 98°
2026-05-07 15:20 64.61305 -178.39514 30725 ft 426 kts 98°
2026-05-07 15:20 64.60987 -178.32619 30981 ft 428 kts 98°
2026-05-07 15:20 64.60665 -178.25718 31231 ft 430 kts 98°
2026-05-07 15:21 64.60338 -178.18761 31482 ft 432 kts 98°
2026-05-07 15:21 64.60006 -178.11789 31758 ft 433 kts 98°
2026-05-07 15:21 64.59670 -178.04812 32013 ft 434 kts 98°
2026-05-07 15:21 64.59330 -177.97824 32204 ft 437 kts 98°
2026-05-07 15:22 64.58986 -177.90787 32432 ft 438 kts 98°
2026-05-07 15:22 64.58641 -177.83825 32681 ft 439 kts 98°
2026-05-07 15:22 64.58286 -177.76738 32913 ft 440 kts 98°
2026-05-07 15:22 64.57928 -177.69648 33130 ft 442 kts 98°
2026-05-07 15:23 64.57565 -177.62539 33352 ft 443 kts 98°
2026-05-07 15:23 64.57199 -177.55432 33654 ft 442 kts 98°
2026-05-07 15:23 64.56829 -177.48329 33948 ft 441 kts 98°
2026-05-07 15:23 64.56458 -177.41256 34230 ft 440 kts 98°
2026-05-07 15:24 64.56084 -177.34195 34499 ft 439 kts 98°
2026-05-07 15:24 64.55707 -177.27148 34762 ft 439 kts 98°
2026-05-07 15:24 64.55327 -177.20114 35018 ft 438 kts 98°
2026-05-07 15:24 64.54945 -177.13101 35272 ft 437 kts 98°
2026-05-07 15:25 64.54559 -177.06083 35506 ft 437 kts 98°
2026-05-07 15:25 64.54170 -176.99072 35723 ft 437 kts 99°
2026-05-07 15:25 64.53778 -176.92066 35936 ft 437 kts 99°
2026-05-07 15:25 64.53382 -176.85060 36117 ft 437 kts 99°
2026-05-07 15:26 64.52988 -176.78138 36293 ft 438 kts 99°
2026-05-07 15:26 64.52586 -176.71116 36495 ft 438 kts 99°
2026-05-07 15:26 64.52180 -176.64111 36703 ft 437 kts 99°
2026-05-07 15:26 64.51770 -176.57091 36888 ft 438 kts 99°
2026-05-07 15:27 64.50940 -176.43063 36900 ft 437 kts 99°
2026-05-07 15:27 64.50099 -176.29087 36900 ft 438 kts 99°
2026-05-07 15:28 64.49250 -176.15189 36900 ft 438 kts 100°
2026-05-07 15:28 64.48381 -176.01190 36900 ft 439 kts 100°
2026-05-07 15:29 64.47496 -175.87159 36900 ft 439 kts 100°
2026-05-07 15:29 64.46600 -175.73172 36900 ft 438 kts 100°
2026-05-07 15:30 64.45692 -175.59221 36900 ft 437 kts 100°
2026-05-07 15:30 64.44772 -175.45298 36899 ft 437 kts 100°
2026-05-07 15:31 64.43839 -175.31382 36900 ft 436 kts 100°
2026-05-07 15:31 64.42900 -175.17585 36900 ft 437 kts 100°
2026-05-07 15:32 64.41941 -175.03690 36900 ft 437 kts 101°
2026-05-07 15:32 64.40972 -174.89795 36899 ft 437 kts 101°
2026-05-07 15:33 64.39993 -174.75923 36900 ft 436 kts 101°
2026-05-07 15:33 64.39002 -174.62076 36900 ft 436 kts 101°
2026-05-07 15:34 64.38001 -174.48252 36898 ft 436 kts 101°
2026-05-07 15:34 64.37704 -174.34213 36897 ft 440 kts 92°
2026-05-07 15:35 64.37730 -174.20156 36899 ft 439 kts 91°
2026-05-07 15:35 64.37763 -174.06026 36899 ft 441 kts 92°
2026-05-07 15:36 64.37785 -173.91859 36898 ft 440 kts 91°
2026-05-07 15:36 64.37793 -173.77745 36899 ft 440 kts 92°
2026-05-07 15:37 64.37788 -173.63606 36898 ft 439 kts 92°
2026-05-07 15:37 64.37768 -173.49468 36900 ft 440 kts 92°
2026-05-07 15:38 64.37736 -173.35318 36899 ft 441 kts 92°
2026-05-07 15:38 64.37706 -173.21231 36898 ft 441 kts 92°
2026-05-07 15:39 64.37681 -173.07098 36899 ft 439 kts 92°
2026-05-07 15:39 64.37643 -172.92985 36899 ft 439 kts 92°
2026-05-07 15:40 64.37590 -172.78853 36899 ft 439 kts 92°
2026-05-07 15:40 64.37525 -172.64728 36899 ft 440 kts 92°
2026-05-07 15:41 64.37446 -172.50594 36898 ft 440 kts 92°
2026-05-07 15:41 64.37353 -172.36457 36898 ft 440 kts 93°
2026-05-07 15:42 64.37247 -172.22330 36898 ft 440 kts 93°
2026-05-07 15:42 64.37127 -172.08300 36898 ft 439 kts 93°
2026-05-07 15:43 64.36994 -171.94201 36898 ft 439 kts 93°
2026-05-07 15:43 64.36852 -171.80127 36898 ft 438 kts 93°
2026-05-07 15:44 64.37224 -171.66080 36898 ft 439 kts 87°
2026-05-07 15:44 64.37754 -171.51996 36900 ft 441 kts 87°
2026-05-07 15:45 64.38285 -171.37851 36899 ft 440 kts 87°
2026-05-07 15:45 64.38798 -171.23847 36900 ft 440 kts 87°
2026-05-07 15:46 64.39056 -171.02749 36901 ft 436 kts 96°
2026-05-07 15:47 64.38488 -170.88801 36898 ft 435 kts 97°
2026-05-07 15:47 64.37886 -170.74855 36898 ft 436 kts 97°
2026-05-07 15:48 64.37273 -170.60997 36898 ft 437 kts 97°
2026-05-07 15:48 64.36642 -170.47036 36898 ft 437 kts 97°
2026-05-07 15:49 64.35997 -170.33073 36899 ft 437 kts 97°
2026-05-07 15:49 64.35340 -170.19122 36899 ft 437 kts 98°
2026-05-07 15:50 64.34668 -170.05161 36899 ft 438 kts 98°
2026-05-07 15:50 64.33982 -169.91191 36899 ft 438 kts 98°
2026-05-07 15:51 64.33288 -169.77230 36899 ft 438 kts 98°
2026-05-07 15:51 64.32585 -169.63399 36899 ft 438 kts 98°
2026-05-07 15:52 64.32092 -169.53863 36899 ft 439 kts 98°
2026-05-07 15:52 64.31366 -169.39982 36898 ft 439 kts 98°
2026-05-07 15:53 64.30622 -169.26029 36899 ft 437 kts 98°
2026-05-07 15:53 64.29866 -169.12160 36899 ft 436 kts 98°
2026-05-07 15:54 64.29099 -168.98281 36898 ft 437 kts 98°
2026-05-07 15:54 64.28322 -168.84487 36898 ft 436 kts 99°
2026-05-07 15:55 64.27527 -168.70617 36898 ft 437 kts 99°
2026-05-07 15:55 64.26719 -168.56754 36898 ft 437 kts 99°
2026-05-07 15:56 64.25901 -168.42947 36898 ft 437 kts 99°
2026-05-07 15:56 64.25061 -168.29015 36899 ft 439 kts 99°
2026-05-07 15:57 64.24211 -168.15097 36898 ft 438 kts 99°
2026-05-07 15:57 64.23354 -168.01332 36900 ft 438 kts 100°
2026-05-07 15:58 64.22478 -167.87469 36899 ft 437 kts 100°